Regional Weather Roundup
Issued by NWS Jackson, KY

Home | Current Version | Previous Version | Text Only | Print | Product List | Glossary On
Versions: 1 2 3 4 5 6 7 8 9 10 11 12 13 14 15 16 17 18 19 20 21 22 23 24 25 26 27 28 29 30 31 32 33 34 35 36 37 38 39 40 41 42 43 44 45 46 47 48 49 50
000
ASUS43 KJKL 300310
RWRJKL

EAST KENTUCKY HOURLY WEATHER ROUNDUP
NATIONAL WEATHER SERVICE JACKSON KY
1100 PM EDT MON AUG 29 2016

NOTE: "FAIR" INDICATES FEW OR NO CLOUDS BELOW 12,000 FEET WITH
NO SIGNIFICANT WEATHER AND/OR OBSTRUCTIONS TO VISIBILITY.

* THESE REPORTS ARE NOT UNDER NWS QUALITY CONTROL AND MAY NOT
  REPORT WEATHER SUCH AS PRECIPITATION AND FOG.

KYZ079-080-083-085-087-088-110-112-115-119-120-300400
...EASTERN KENTUCKY...

CITY           SKY/WX    TMP DP  RH WIND       PRES   REMARKS
JACKSON        CLEAR     71  67  87 CALM      30.18S
LONDON         CLEAR     73  67  81 N5        30.17S
SOMERSET*      CLEAR     72  66  83 CALM      30.16S
MONTICELLO*    CLEAR    N/A N/A N/A N14       30.17S
WILLIAMSBURG*  CLEAR     73  73 100 N3        30.16S
MIDDLESBORO*   CLEAR     72  71  98 CALM      30.17S
HARLAN APT*      N/A     70  66  88 CALM      30.18S
PIKE CO APT*     N/A     76  70  83 CALM      30.19S
BIG SANDY APT* CLOUDY    73  73  98 CALM      30.18S
MOREHEAD APT*  CLEAR     75  68  78 NE3       30.19S
$$

KYZ035-036-041-042-044-050-067-078-099-300400
...CENTRAL KENTUCKY...

CITY           SKY/WX    TMP DP  RH WIND       PRES   REMARKS
MT STERLING*   CLEAR     77  70  78 E3        30.18S
FLEMING/MASON* CLEAR     76  70  81 CALM      30.19S
DANVILLE*      CLEAR     72  70  94 CALM      30.18R
LEXINGTON      CLEAR     77  70  79 NE8       30.16S
FRANKFORT      CLEAR     77  73  87 N5        30.15S
LOUISVILLE     CLEAR     83  70  64 N3        30.14R
LEBANON*         N/A     73  72  94 CALM      30.16S
GLASGOW*       CLEAR     74  69  83 NE3       30.14R
BOWLING GREEN  CLEAR     78  72  81 CALM      30.13R
$$

KYZ091>093-OHZ055-061-077-WVZ005-015-034-035-042-300400
...SOUTHERN OHIO/WEST VIRGINIA...

CITY           SKY/WX    TMP DP  RH WIND       PRES   REMARKS
COVINGTON      CLEAR     81  71  71 E7        30.17S
COLUMBUS       CLEAR     73  66  78 NE8       30.19S
DAYTON         CLEAR     74  69  85 E7        30.20F
WILMINGTON     CLEAR     73  69  87 NE7       30.19S
HUNTINGTON     CLEAR     78  69  73 NE5       30.16S
CHARLESTON     CLEAR     74  70  87 NE3       30.17S
PINEVILLE*     CLEAR     69  65  87 MISG      30.25F
BECKLEY        CLEAR     71  67  87 CALM      30.24F
BLUEFIELD      MOCLDY    66  62  87 S3        30.27S
LOGAN CO APT*    N/A     75  72  88 CALM      30.19S
$$

VAZ002-007-008-TNZ017-027-036-066-071-300400
...SOUTHWEST VIRGINIA/EAST TENNESSEE...

CITY           SKY/WX    TMP DP  RH WIND       PRES   REMARKS
WISE*          PTCLDY    70  59  68 CALM      30.27S
JONESVILLE*      N/A     72  70  94 CALM      30.19S
ABINGDON*      CLEAR     76  66  71 E6        30.21S
BRISTOL        PTCLDY    74  67  78 N3        30.16S
MORRISTOWN*    PTCLDY    77  66  69 CALM      30.14R
SEVIERVILLE*   CLEAR     73  63  68 SE3       30.12S
KNOXVILLE      PTCLDY    80  64  58 N5        30.10S
OAK RIDGE      CLEAR     78  69  73 CALM      30.13R
CROSSVILLE     CLEAR     74  69  85 N5        30.19R
NASHVILLE      CLEAR     83  73  72 NE7       30.11R
$$

...KEY TO REMARKS...
VSB - VISIBILITY IN MILES
WCI - WIND CHILL INDEX
HX  - HEAT INDEX

$$



USA.gov is the U.S. government's official web portal to all federal, state and local government web resources and services.